Location: Lecco
(45.8566°N, 9.3977°E)
Time: 10:38:01
(UTC+02:00)

S-56A Canister/Altair - All Passes

Search period start: 22 July 2019 00:00
Search period end: 01 August 2019 00:00
Orbit: 632 x 2500 km, 38.9° (Epoch: 21 July)

Date Brightness Start Highest point End Pass type
(mag) Time Alt. Az. Time Alt. Az. Time Alt. Az.
22 Jul - 05:17:21 10° SSE 05:23:01 16° SE 05:29:35 10° E visible
22 Jul - 07:15:39 10° SSW 07:26:02 43° SSE 07:39:18 10° E daylight
22 Jul - 09:18:34 10° WSW 09:31:14 64° S 09:46:08 10° E daylight
22 Jul - 11:23:26 10° W 11:37:28 62° SSW 11:51:44 10° ESE daylight
22 Jul - 13:29:36 10° W 13:42:54 40° SW 13:54:56 10° SSE daylight
22 Jul - 15:39:46 10° W 15:46:20 15° SW 15:52:25 10° SSW daylight
23 Jul - 04:46:42 10° SE 04:50:18 12° ESE 04:54:16 10° ESE visible
23 Jul - 06:43:15 10° SSW 06:52:54 39° SE 07:05:28 10° E daylight
23 Jul - 08:45:43 10° WSW 08:57:45 62° SSE 09:12:34 10° E daylight
23 Jul - 10:50:14 10° W 11:03:54 63° S 11:18:29 10° ESE daylight
23 Jul - 12:56:03 10° W 13:09:33 43° SSW 13:22:14 10° SSE daylight
23 Jul - 15:05:00 10° W 15:13:22 18° SW 15:21:05 10° SSW daylight
24 Jul - 06:11:00 10° SSW 06:19:53 34° SE 06:31:34 10° E daylight
24 Jul - 08:12:57 10° WSW 08:24:21 60° SSE 08:38:56 10° E daylight
24 Jul - 10:17:08 10° W 10:30:20 64° S 10:45:10 10° ESE daylight
24 Jul - 12:22:37 10° W 12:36:09 46° SSW 12:49:24 10° SE daylight
24 Jul - 14:30:40 10° W 14:40:20 21° SW 14:49:19 10° S daylight
25 Jul - 05:38:51 10° SSW 05:46:57 30° SE 05:57:36 10° E daylight
25 Jul - 07:40:17 10° SW 07:51:01 57° SSE 08:05:14 10° E daylight
25 Jul - 09:44:07 10° W 09:56:47 65° S 10:11:43 10° ESE daylight
25 Jul - 11:49:17 10° W 12:02:43 49° SSW 12:16:26 10° SE daylight
25 Jul - 13:56:37 10° W 14:07:13 24° SW 14:17:15 10° S daylight
26 Jul - 05:06:52 10° S 05:14:07 26° SE 05:23:34 10° E visible
26 Jul - 07:07:42 10° SW 07:17:46 54° SSE 07:31:29 10° E daylight
26 Jul - 09:11:13 10° W 09:23:17 65° S 09:38:12 10° ESE daylight
26 Jul - 11:16:04 10° W 11:29:14 52° SSW 11:43:21 10° SE daylight
26 Jul - 13:22:47 10° W 13:34:02 27° SW 13:44:57 10° S daylight
27 Jul - 04:35:04 10° S 04:41:23 21° SE 04:49:24 10° E visible
27 Jul - 06:35:13 10° SW 06:44:37 50° SSE 06:57:42 10° E daylight
27 Jul - 08:38:22 10° WSW 08:49:50 65° S 09:04:37 10° ESE daylight
27 Jul - 10:42:56 10° W 10:55:46 54° SSW 11:10:10 10° SE daylight
27 Jul - 12:49:07 10° W 13:00:48 30° SW 13:12:28 10° SSE daylight
28 Jul - 04:03:31 10° SSE 04:08:43 17° SE 04:15:06 10° E visible
28 Jul - 06:02:50 10° SW 06:11:33 46° SSE 06:23:53 10° E daylight
28 Jul - 08:05:38 10° WSW 08:16:27 64° S 08:30:57 10° E daylight
28 Jul - 10:09:53 10° W 10:22:17 56° SSW 10:36:51 10° SE daylight
28 Jul - 12:15:38 10° W 12:27:31 33° SW 12:39:48 10° SSE daylight
28 Jul - 14:30:15 10° WSW 14:31:06 10° SW 14:31:57 10° SW daylight
29 Jul - 03:32:24 10° SSE 03:36:07 14° SE 03:40:26 10° ESE visible
29 Jul - 05:30:32 10° SW 05:38:36 41° SSE 05:50:03 10° E daylight
29 Jul - 07:32:59 10° WSW 07:43:08 62° S 07:57:14 10° E daylight
29 Jul - 09:36:57 10° W 09:48:50 58° SSW 10:03:26 10° ESE daylight
29 Jul - 11:42:16 10° W 11:54:11 36° SW 12:06:59 10° SSE daylight
29 Jul - 13:52:50 10° WSW 13:58:05 13° SW 14:03:20 10° SSW daylight
30 Jul - 04:58:19 10° SSW 05:05:43 37° SSE 05:16:12 10° E visible
30 Jul - 07:00:23 10° WSW 07:09:55 61° S 07:23:29 10° E daylight
30 Jul - 09:04:05 10° W 09:15:25 59° SSW 09:29:57 10° ESE daylight
30 Jul - 11:09:03 10° W 11:20:51 39° SSW 11:34:02 10° SSE daylight
30 Jul - 13:17:57 10° W 13:25:01 15° SW 13:32:10 10° SSW daylight
31 Jul - 04:26:13 10° SSW 04:32:57 32° SE 04:42:21 10° E visible
31 Jul - 06:27:53 10° WSW 06:36:46 58° SSE 06:49:43 10° E daylight
31 Jul - 08:31:19 10° W 08:42:03 60° S 08:56:22 10° ESE daylight
31 Jul - 10:35:56 10° W 10:47:29 41° SSW 11:00:57 10° SSE daylight
31 Jul - 12:43:43 10° W 12:51:54 18° SW 13:00:22 10° SSW daylight
